| time (UTC) | temp C | wind direction | speed KPH | gust KPH | rain 1hr cm | rain 24hr cm | rain mn cm | humidity % | barometer mb |
| 20260902163505 | 21 | 242 | 1.6 | 8.0 | 0.00 | 0.00 | 0.00 | 75 | 1017.6 |
| 20260902162959 | 21 | 108 | 1.6 | 4.8 | 0.00 | 0.00 | 0.00 | 73 | 1017.8 |
| 20260902162443 | 21 | 130 | 3.2 | 6.4 | 0.00 | 0.00 | 0.00 | 74 | 1017.8 |
| 20260902161941 | 21 | 293 | 3.2 | 11.3 | 0.00 | 0.00 | 0.00 | 73 | 1018.0 |
| 20260902161440 | 21 | 248 | 3.2 | 11.3 | 0.00 | 0.00 | 0.00 | 73 | 1018.0 |
| 20260902161132 | 20 | 152 | 4.8 | 11.3 | 0.00 | 0.00 | 0.00 | 74 | 1018.2 |
| 20260902161009 | 20 | 351 | 4.8 | 11.3 | 0.00 | 0.00 | 0.00 | 76 | 1018.1 |
| 20260902155855 | 20 | 303 | 3.2 | 11.3 | 0.00 | 0.00 | 0.00 | 77 | 1018.1 |
| 20260902155324 | 20 | 278 | 3.2 | 8.0 | 0.00 | 0.00 | 0.00 | 78 | 1018.4 |
| 20260902154821 | 20 | 337 | 3.2 | 9.7 | 0.00 | 0.00 | 0.00 | 77 | 1018.3 |
| 20260902154320 | 20 | 271 | 4.8 | 11.3 | 0.00 | 0.00 | 0.00 | 76 | 1018.5 |
| 20260902153750 | 20 | 317 | 4.8 | 14.5 | 0.00 | 0.00 | 0.00 | 79 | 1018.6 |
| 20260902153223 | 20 | 299 | 4.8 | 14.5 | 0.00 | 0.00 | 0.00 | 80 | 1018.7 |
| 20260902152658 | 19 | 313 | 4.8 | 16.1 | 0.00 | 0.00 | 0.00 | 80 | 1018.7 |
| 20260902152427 | 18 | 285 | 6.4 | 16.1 | 0.00 | 0.00 | 0.00 | 79 | 1018.8 |
| 20260902151924 | 18 | 292 | 6.4 | 16.1 | 0.00 | 0.00 | 0.00 | 79 | 1018.9 |
| 20260902151120 | 18 | 289 | 8.0 | 16.1 | 0.00 | 0.00 | 0.00 | 80 | 1018.9 |
| 20260902150821 | 18 | 306 | 6.4 | 14.5 | 0.00 | 0.00 | 0.00 | 81 | 1018.9 |
| 20260902150049 | 18 | 293 | 6.4 | 14.5 | 0.00 | 0.00 | 0.00 | 81 | 1018.9 |
| 20260902145547 | 18 | 304 | 6.4 | 14.5 | 0.00 | 0.00 | 0.00 | 81 | 1019.0 |
| 20260902145019 | 18 | 249 | 4.8 | 16.1 | 0.00 | 0.00 | 0.00 | 82 | 1019.0 |
| 20260902144739 | 17 | 280 | 6.4 | 16.1 | 0.00 | 0.00 | 0.00 | 84 | 1019.1 |
| 20260902144237 | 17 | 258 | 8.0 | 16.1 | 0.00 | 0.00 | 0.00 | 82 | 1019.2 |
| 20260902143438 | 17 | 230 | 8.0 | 14.5 | 0.00 | 0.00 | 0.00 | 81 | 1019.2 |
| 20260902142908 | 17 | 285 | 6.4 | 14.5 | 0.00 | 0.00 | 0.00 | 82 | 1019.2 |
| 20260902142343 | 17 | 247 | 6.4 | 14.5 | 0.00 | 0.00 | 0.00 | 82 | 1019.3 |
| 20260902141819 | 17 | 329 | 6.4 | 14.5 | 0.00 | 0.00 | 0.00 | 81 | 1019.2 |
| 20260902141251 | 17 | 262 | 6.4 | 12.9 | 0.00 | 0.00 | 0.00 | 82 | 1019.4 |
| 20260902140739 | 17 | 294 | 6.4 | 12.9 | 0.00 | 0.00 | 0.00 | 82 | 1019.4 |
| 20260902140236 | 17 | 247 | 4.8 | 11.3 | 0.00 | 0.00 | 0.00 | 83 | 1019.6 |
| 20260902135958 | 17 | 347 | 4.8 | 14.5 | 0.00 | 0.00 | 0.00 | 83 | 1019.5 |
| 20260902135223 | 17 | 310 | 6.4 | 14.5 | 0.00 | 0.00 | 0.00 | 83 | 1019.5 |
| 20260902134723 | 17 | 330 | 6.4 | 14.5 | 0.00 | 0.00 | 0.00 | 85 | 1019.6 |
| 20260902134436 | 17 | 254 | 6.4 | 14.5 | 0.00 | 0.00 | 0.00 | 83 | 1019.6 |
| 20260902133704 | 17 | 6 | 4.8 | 12.9 | 0.00 | 0.00 | 0.00 | 85 | 1019.6 |
| 20260902133140 | 17 | 357 | 4.8 | 12.9 | 0.00 | 0.00 | 0.00 | 84 | 1019.7 |
| 20260902132846 | 16 | 271 | 4.8 | 11.3 | 0.00 | 0.00 | 0.00 | 86 | 1019.5 |
| 20260902132318 | 16 | 308 | 4.8 | 12.9 | 0.00 | 0.00 | 0.00 | 85 | 1019.5 |
| 20260902131530 | 16 | 340 | 4.8 | 12.9 | 0.00 | 0.00 | 0.00 | 86 | 1019.7 |
| 20260902131028 | 16 | 337 | 4.8 | 12.9 | 0.00 | 0.00 | 0.00 | 88 | 1019.7 |
| 20260902130527 | 16 | 283 | 6.4 | 12.9 | 0.00 | 0.00 | 0.00 | 87 | 1019.8 |
| 20260902130028 | 15 | 20 | 6.4 | 12.9 | 0.00 | 0.00 | 0.00 | 87 | 1019.8 |
| 20260902125500 | 15 | 293 | 4.8 | 12.9 | 0.00 | 0.00 | 0.00 | 87 | 1019.8 |
| 20260902124933 | 15 | 264 | 4.8 | 12.9 | 0.00 | 0.13 | 0.00 | 88 | 1020.0 |
| 20260902124426 | 15 | 328 | 4.8 | 12.9 | 0.00 | 0.13 | 0.00 | 88 | 1020.0 |
| 20260902123926 | 15 | 324 | 6.4 | 12.9 | 0.00 | 0.13 | 0.00 | 88 | 1020.0 |
| 20260902123424 | 15 | 264 | 4.8 | 12.9 | 0.00 | 0.13 | 0.00 | 88 | 1019.9 |
| 20260902122924 | 15 | 339 | 4.8 | 11.3 | 0.00 | 0.13 | 0.00 | 88 | 1020.1 |
| 20260902122422 | 15 | 312 | 3.2 | 11.3 | 0.00 | 0.13 | 0.00 | 89 | 1020.2 |
| 20260902121922 | 15 | 320 | 4.8 | 16.1 | 0.00 | 0.13 | 0.00 | 92 | 1020.2 |
| 20260902121421 | 15 | 304 | 6.4 | 16.1 | 0.00 | 0.13 | 0.00 | 93 | 1020.1 |
| 20260902121126 | 15 | 329 | 3.2 | 12.9 | 0.00 | 0.13 | 0.00 | 95 | 1019.9 |
| 20260902120329 | 14 | 283 | 1.6 | 11.3 | 0.00 | 0.13 | 0.00 | 97 | 1019.7 |
| 20260902115826 | 14 | 204 | 0.0 | 1.6 | 0.00 | 0.13 | 0.00 | 98 | 1019.7 |
| 20260902115258 | 13 | 152 | 0.0 | 3.2 | 0.00 | 0.13 | 0.00 | 99 | 1019.7 |
| 20260902114756 | 13 | 133 | 0.0 | 3.2 | 0.00 | 0.13 | 0.00 | 99 | 1019.5 |
| 20260902114528 | 13 | 129 | 0.0 | 3.2 | 0.00 | 0.13 | 0.00 | 99 | 1019.5 |
| 20260902113757 | 13 | 153 | 0.0 | 3.2 | 0.00 | 0.13 | 0.00 | 99 | 1019.6 |
| 20260902113254 | 13 | 114 | 0.0 | 3.2 | 0.00 | 0.13 | 0.00 | 99 | 1019.7 |
| 20260902112753 | 12 | 112 | 0.0 | 0.0 | 0.00 | 0.13 | 0.00 | 99 | 1019.5 |
| 20260902112515 | 12 | 177 | 0.0 | 1.6 | 0.00 | 0.13 | 0.00 | 99 | 1019.6 |
| 20260902111743 | 12 | 145 | 0.0 | 1.6 | 0.00 | 0.13 | 0.00 | 99 | 1019.5 |
| 20260902111217 | 12 | 60 | 0.0 | 0.0 | 0.00 | 0.13 | 0.00 | 99 | 1019.5 |
| 20260902110647 | 11 | 70 | 0.0 | 0.0 | 0.00 | 0.13 | 0.00 | 99 | 1019.5 |
| 20260902110121 | 11 | 222 | 0.0 | 0.0 | 0.00 | 0.13 | 0.00 | 99 | 1019.3 |
| 20260902105547 | 10 | 222 | 0.0 | 0.0 | 0.00 | 0.13 | 0.00 | 99 | 1019.3 |
| 20260902105021 | 10 | 222 | 0.0 | 0.0 | 0.00 | 0.13 | 0.00 | 98 | 1019.4 |
| 20260902104454 | 10 | 222 | 0.0 | 0.0 | 0.00 | 0.15 | 0.00 | 98 | 1019.3 |
| 20260902103953 | 9 | 222 | 0.0 | 0.0 | 0.00 | 0.15 | 0.00 | 98 | 1019.2 |
| 20260902103450 | 8 | 222 | 0.0 | 0.0 | 0.00 | 0.15 | 0.00 | 98 | 1019.2 |
| 20260902102948 | 8 | 222 | 0.0 | 0.0 | 0.00 | 0.15 | 0.00 | 98 | 1019.1 |
| 20260902102716 | 8 | 222 | 0.0 | 0.0 | 0.00 | 0.15 | 0.00 | 98 | 1019.1 |
| 20260902102215 | 8 | 222 | 0.0 | 0.0 | 0.00 | 0.15 | 0.00 | 97 | 1019.1 |
| 20260902101418 | 8 | 222 | 0.0 | 0.0 | 0.00 | 0.15 | 0.00 | 97 | 1019.1 |
| 20260902100917 | 8 | 222 | 0.0 | 0.0 | 0.00 | 0.15 | 0.00 | 97 | 1019.0 |
| 20260902100416 | 8 | 222 | 0.0 | 0.0 | 0.00 | 0.15 | 0.00 | 97 | 1019.0 |
| 20260902095924 | 8 | 222 | 0.0 | 0.0 | 0.00 | 0.15 | 0.00 | 97 | 1018.9 |
| 20260902095916 | 8 | 222 | 0.0 | 0.0 | 0.00 | 0.15 | 0.00 | 97 | 1019.0 |
| 20260902095143 | 8 | 168 | 0.0 | 0.0 | 0.00 | 0.15 | 0.00 | 97 | 1018.8 |
| 20260902094410 | 8 | 168 | 0.0 | 0.0 | 0.00 | 0.15 | 0.00 | 97 | 1018.8 |
| 20260902093909 | 8 | 168 | 0.0 | 0.0 | 0.00 | 0.15 | 0.00 | 97 | 1018.8 |
| 20260902093407 | 8 | 168 | 0.0 | 0.0 | 0.00 | 0.15 | 0.00 | 97 | 1018.7 |
| 20260902092855 | 8 | 168 | 0.0 | 0.0 | 0.00 | 0.15 | 0.00 | 97 | 1018.6 |
| 20260902092849 | 8 | 168 | 0.0 | 0.0 | 0.00 | 0.15 | 0.00 | 97 | 1018.5 |
| 20260902092229 | 8 | 168 | 0.0 | 0.0 | 0.00 | 0.15 | 0.00 | 97 | 1018.3 |
| 20260902092119 | 8 | 168 | 0.0 | 0.0 | 0.00 | 0.15 | 0.00 | 97 | 1018.4 |
| 20260902090839 | 8 | 168 | 0.0 | 0.0 | 0.00 | 0.15 | 0.00 | 97 | 1018.3 |
| 20260902090333 | 8 | 168 | 0.0 | 0.0 | 0.00 | 0.15 | 0.00 | 97 | 1018.1 |
| 20260902085807 | 8 | 168 | 0.0 | 0.0 | 0.00 | 0.15 | 0.00 | 97 | 1018.0 |
| 20260902085254 | 9 | 168 | 0.0 | 0.0 | 0.00 | 0.15 | 0.00 | 97 | 1018.0 |
| 20260902084753 | 9 | 168 | 0.0 | 0.0 | 0.00 | 0.15 | 0.00 | 97 | 1017.8 |
| 20260902084240 | 8 | 168 | 0.0 | 0.0 | 0.00 | 0.15 | 0.00 | 97 | 1017.8 |
| 20260902083737 | 8 | 114 | 0.0 | 0.0 | 0.00 | 0.15 | 0.00 | 97 | 1017.7 |
| 20260902083234 | 8 | 114 | 0.0 | 0.0 | 0.00 | 0.15 | 0.00 | 96 | 1017.6 |
| 20260902082733 | 9 | 114 | 0.0 | 0.0 | 0.00 | 0.15 | 0.00 | 96 | 1017.8 |
| 20260902082210 | 9 | 114 | 0.0 | 0.0 | 0.00 | 0.15 | 0.00 | 96 | 1017.7 |
| 20260902081700 | 9 | 114 | 0.0 | 0.0 | 0.00 | 0.15 | 0.00 | 96 | 1017.7 |
| 20260902081426 | 9 | 115 | 0.0 | 0.0 | 0.00 | 0.15 | 0.00 | 96 | 1017.9 |
| 20260902080636 | 9 | 114 | 0.0 | 0.0 | 0.00 | 0.18 | 0.00 | 96 | 1017.8 |
| 20260902080106 | 9 | 115 | 0.0 | 0.0 | 0.00 | 0.18 | 0.00 | 96 | 1017.7 |
| 20260902075549 | 10 | 114 | 0.0 | 0.0 | 0.00 | 0.18 | 0.00 | 96 | 1017.6 |
| 20260902075047 | 10 | 114 | 0.0 | 0.0 | 0.00 | 0.18 | 0.00 | 96 | 1017.6 |
| 20260902075025 | 10 | 114 | 0.0 | 0.0 | 0.00 | 0.18 | 0.00 | 96 | 1017.5 |
| 20260902074020 | 10 | 114 | 0.0 | 0.0 | 0.00 | 0.18 | 0.00 | 96 | 1017.6 |
| 20260902073521 | 10 | 114 | 0.0 | 0.0 | 0.00 | 0.18 | 0.00 | 97 | 1017.7 |
| 20260902073016 | 10 | 114 | 0.0 | 0.0 | 0.00 | 0.18 | 0.00 | 97 | 1017.6 |
| 20260902072446 | 10 | 114 | 0.0 | 0.0 | 0.00 | 0.18 | 0.00 | 97 | 1017.7 |
| 20260902071950 | 10 | 114 | 0.0 | 0.0 | 0.00 | 0.18 | 0.00 | 96 | 1017.7 |
| 20260902071420 | 10 | 114 | 0.0 | 0.0 | 0.00 | 0.18 | 0.00 | 96 | 1017.8 |
| 20260902070910 | 10 | 114 | 0.0 | 0.0 | 0.00 | 0.18 | 0.00 | 95 | 1017.7 |
| 20260902070400 | 10 | 114 | 0.0 | 0.0 | 0.00 | 0.18 | 0.00 | 95 | 1017.8 |
| 20260902065859 | 10 | 114 | 0.0 | 0.0 | 0.00 | 0.18 | 0.00 | 95 | 1017.8 |
| 20260902065629 | 10 | 114 | 0.0 | 0.0 | 0.00 | 0.18 | 0.00 | 95 | 1017.8 |
| 20260902065126 | 10 | 115 | 0.0 | 0.0 | 0.00 | 0.18 | 0.00 | 95 | 1017.9 |
| 20260902065006 | 10 | 114 | 0.0 | 0.0 | 0.00 | 0.18 | 0.00 | 95 | 1017.8 |
| 20260902063853 | 11 | 115 | 0.0 | 0.0 | 0.00 | 0.18 | 0.00 | 95 | 1017.8 |
| 20260902063352 | 11 | 114 | 0.0 | 0.0 | 0.00 | 0.18 | 0.00 | 95 | 1018.1 |
| 20260902062850 | 11 | 114 | 0.0 | 0.0 | 0.00 | 0.18 | 0.00 | 95 | 1018.1 |
| 20260902062351 | 11 | 114 | 0.0 | 0.0 | 0.00 | 0.18 | 0.00 | 95 | 1018.0 |
| 20260902061850 | 11 | 115 | 0.0 | 0.0 | 0.00 | 0.18 | 0.00 | 95 | 1018.0 |
| 20260902061351 | 11 | 114 | 0.0 | 0.0 | 0.00 | 0.18 | 0.00 | 95 | 1018.1 |
| 20260902060825 | 11 | 114 | 0.0 | 0.0 | 0.00 | 0.18 | 0.00 | 95 | 1018.0 |
| 20260902060528 | 11 | 114 | 0.0 | 0.0 | 0.00 | 0.18 | 0.00 | 95 | 1018.0 |
| 20260902055735 | 12 | 114 | 0.0 | 0.0 | 0.00 | 0.18 | 0.00 | 95 | 1018.0 |
| 20260902055234 | 12 | 114 | 0.0 | 0.0 | 0.00 | 0.18 | 0.00 | 96 | 1018.0 |
| 20260902055002 | 12 | 114 | 0.0 | 0.0 | 0.00 | 0.18 | 0.00 | 95 | 1018.0 |
| 20260902054230 | 12 | 114 | 0.0 | 0.0 | 0.00 | 0.18 | 0.00 | 96 | 1018.1 |
| 20260902054001 | 12 | 114 | 0.0 | 0.0 | 0.00 | 0.18 | 0.00 | 96 | 1018.1 |
| 20260902053224 | 12 | 114 | 0.0 | 0.0 | 0.00 | 0.18 | 0.00 | 96 | 1018.1 |
| 20260902052657 | 12 | 114 | 0.0 | 0.0 | 0.00 | 0.18 | 0.00 | 96 | 1018.3 |
| 20260902052156 | 12 | 114 | 0.0 | 0.0 | 0.00 | 0.18 | 0.00 | 96 | 1018.4 |
| 20260902051656 | 12 | 114 | 0.0 | 0.0 | 0.00 | 0.18 | 0.00 | 96 | 1018.5 |
| 20260902051147 | 12 | 114 | 0.0 | 0.0 | 0.00 | 0.18 | 0.00 | 96 | 1018.6 |
| 20260902051140 | 12 | 114 | 0.0 | 0.0 | 0.00 | 0.18 | 0.00 | 96 | 1018.5 |
| 20260902050113 | 12 | 114 | 0.0 | 0.0 | 0.00 | 0.18 | 0.00 | 96 | 1018.5 |
| 20260902045546 | 12 | 114 | 0.0 | 0.0 | 0.00 | 0.18 | 0.00 | 96 | 1018.6 |
| 20260902045030 | 12 | 114 | 0.0 | 0.0 | 0.00 | 0.18 | 0.00 | 96 | 1018.7 |
| 20260902044526 | 12 | 114 | 0.0 | 0.0 | 0.00 | 0.18 | 0.00 | 96 | 1018.6 |
| 20260902044023 | 12 | 114 | 0.0 | 0.0 | 0.00 | 0.18 | 0.00 | 96 | 1018.7 |
| 20260902043518 | 12 | 114 | 0.0 | 0.0 | 0.00 | 0.18 | 0.00 | 95 | 1018.7 |
| 20260902043010 | 12 | 114 | 0.0 | 0.0 | 0.00 | 0.18 | 0.00 | 95 | 1018.6 |
| 20260902042508 | 12 | 114 | 0.0 | 0.0 | 0.00 | 0.18 | 0.00 | 94 | 1018.5 |
| 20260902041935 | 12 | 114 | 0.0 | 0.0 | 0.00 | 0.18 | 0.00 | 94 | 1018.5 |
| 20260902041424 | 13 | 114 | 0.0 | 0.0 | 0.00 | 0.18 | 0.00 | 93 | 1018.5 |
| 20260902040912 | 13 | 114 | 0.0 | 0.0 | 0.00 | 0.18 | 0.00 | 92 | 1018.5 |
| 20260902040411 | 13 | 114 | 0.0 | 0.0 | 0.00 | 0.18 | 0.00 | 92 | 1018.6 |
| 20260902035844 | 13 | 114 | 0.0 | 0.0 | 0.00 | 0.18 | 0.00 | 93 | 1018.6 |
| 20260902035320 | 13 | 114 | 0.0 | 0.0 | 0.00 | 0.18 | 0.00 | 93 | 1018.6 |
| 20260902035038 | 13 | 114 | 0.0 | 0.0 | 0.00 | 0.18 | 0.00 | 93 | 1018.6 |
| 20260902034307 | 13 | 115 | 0.0 | 0.0 | 0.00 | 0.18 | 0.00 | 93 | 1018.7 |
| 20260902033804 | 13 | 114 | 0.0 | 0.0 | 0.00 | 0.18 | 0.00 | 93 | 1018.7 |
| 20260902033238 | 13 | 114 | 0.0 | 0.0 | 0.00 | 0.18 | 0.00 | 93 | 1018.7 |
| 20260902032942 | 14 | 114 | 0.0 | 0.0 | 0.00 | 0.18 | 0.00 | 94 | 1018.6 |
| 20260902032142 | 14 | 114 | 1.6 | 4.8 | 0.00 | 0.18 | 0.00 | 94 | 1018.6 |
| 20260902031639 | 14 | 114 | 1.6 | 4.8 | 0.00 | 0.18 | 0.00 | 94 | 1018.6 |
| 20260902031138 | 14 | 96 | 0.0 | 3.2 | 0.00 | 0.18 | 0.00 | 95 | 1018.7 |
| 20260902030633 | 14 | 187 | 0.0 | 1.6 | 0.00 | 0.18 | 0.00 | 95 | 1018.7 |
| 20260902030354 | 14 | 172 | 0.0 | 1.6 | 0.00 | 0.18 | 0.00 | 95 | 1018.8 |
| 20260902025614 | 14 | 172 | 0.0 | 1.6 | 0.00 | 0.18 | 0.18 | 95 | 1018.9 |
| 20260902025116 | 14 | 177 | 0.0 | 1.6 | 0.00 | 0.18 | 0.18 | 95 | 1018.9 |
| 20260902024549 | 14 | 135 | 0.0 | 1.6 | 0.00 | 0.18 | 0.18 | 95 | 1018.8 |
| 20260902024044 | 14 | 135 | 0.0 | 1.6 | 0.00 | 0.18 | 0.18 | 95 | 1018.8 |
| 20260902023542 | 14 | 135 | 0.0 | 4.8 | 0.00 | 0.18 | 0.18 | 95 | 1018.8 |
| 20260902023017 | 14 | 135 | 0.0 | 4.8 | 0.00 | 0.18 | 0.18 | 95 | 1018.7 |
| 20260902022455 | 14 | 133 | 1.6 | 6.4 | 0.00 | 0.18 | 0.18 | 96 | 1018.8 |
| 20260902021930 | 14 | 97 | 1.6 | 6.4 | 0.00 | 0.18 | 0.18 | 96 | 1018.9 |
| 20260902021403 | 14 | 99 | 0.0 | 4.8 | 0.00 | 0.18 | 0.18 | 96 | 1018.8 |
| 20260902021115 | 15 | 112 | 0.0 | 0.0 | 0.00 | 0.18 | 0.18 | 97 | 1018.8 |
| 20260902020318 | 15 | 112 | 0.0 | 0.0 | 0.00 | 0.18 | 0.18 | 97 | 1018.8 |
| 20260902015813 | 15 | 112 | 0.0 | 4.8 | 0.00 | 0.18 | 0.18 | 97 | 1018.7 |
| 20260902015312 | 15 | 112 | 1.6 | 6.4 | 0.00 | 0.18 | 0.18 | 97 | 1018.6 |
| 20260902015043 | 15 | 120 | 3.2 | 8.0 | 0.00 | 0.18 | 0.18 | 97 | 1018.5 |
| 20260902014245 | 15 | 102 | 1.6 | 8.0 | 0.00 | 0.18 | 0.18 | 97 | 1018.6 |
| 20260902013727 | 15 | 118 | 0.0 | 0.0 | 0.00 | 0.18 | 0.18 | 98 | 1018.6 |
| 20260902013230 | 15 | 128 | 0.0 | 0.0 | 0.00 | 0.18 | 0.18 | 97 | 1018.6 |
| 20260902012702 | 15 | 128 | 0.0 | 0.0 | 0.00 | 0.18 | 0.18 | 97 | 1018.6 |
| 20260902012203 | 14 | 128 | 0.0 | 0.0 | 0.00 | 0.18 | 0.18 | 97 | 1018.5 |
| 20260902011650 | 14 | 128 | 0.0 | 1.6 | 0.00 | 0.18 | 0.18 | 97 | 1018.5 |
| 20260902011145 | 14 | 58 | 0.0 | 1.6 | 0.00 | 0.18 | 0.18 | 97 | 1018.4 |
| 20260902010918 | 14 | 58 | 0.0 | 0.0 | 0.00 | 0.18 | 0.18 | 96 | 1018.2 |
| 20260902010142 | 14 | 58 | 0.0 | 0.0 | 0.00 | 0.18 | 0.18 | 96 | 1018.2 |
| 20260902005642 | 14 | 58 | 0.0 | 0.0 | 0.00 | 0.18 | 0.18 | 96 | 1017.9 |
| 20260902005410 | 14 | 58 | 0.0 | 0.0 | 0.00 | 0.18 | 0.18 | 95 | 1018.0 |
| 20260902004641 | 14 | 58 | 0.0 | 0.0 | 0.00 | 0.18 | 0.18 | 96 | 1017.9 |
| 20260902004347 | 14 | 58 | 0.0 | 0.0 | 0.00 | 0.18 | 0.18 | 96 | 1017.9 |
| 20260902003556 | 14 | 58 | 0.0 | 0.0 | 0.00 | 0.18 | 0.18 | 96 | 1017.8 |
| 20260902003058 | 14 | 58 | 0.0 | 0.0 | 0.00 | 0.18 | 0.18 | 95 | 1017.6 |
| 20260902002536 | 14 | 58 | 0.0 | 1.6 | 0.00 | 0.18 | 0.18 | 94 | 1017.4 |
| 20260902002005 | 14 | 58 | 0.0 | 1.6 | 0.00 | 0.18 | 0.18 | 94 | 1017.5 |
| 20260902001440 | 14 | 58 | 0.0 | 0.0 | 0.00 | 0.18 | 0.18 | 93 | 1017.5 |
| 20260902001211 | 14 | 58 | 0.0 | 0.0 | 0.00 | 0.18 | 0.18 | 93 | 1017.4 |
| 20260902000414 | 15 | 58 | 0.0 | 0.0 | 0.00 | 0.18 | 0.18 | 93 | 1017.3 |
| 20260901235905 | 15 | 58 | 0.0 | 0.0 | 0.00 | 0.18 | 0.18 | 93 | 1017.4 |
| 20260901235402 | 15 | 58 | 0.0 | 0.0 | 0.00 | 0.18 | 0.18 | 93 | 1017.3 |
| 20260901234856 | 15 | 58 | 0.0 | 0.0 | 0.00 | 0.18 | 0.18 | 93 | 1017.2 |
| 20260901234352 | 15 | 58 | 0.0 | 0.0 | 0.00 | 0.18 | 0.18 | 94 | 1017.3 |
| 20260901233827 | 15 | 58 | 0.0 | 0.0 | 0.00 | 0.18 | 0.18 | 93 | 1017.1 |
| 20260901233302 | 15 | 58 | 0.0 | 0.0 | 0.00 | 0.18 | 0.18 | 92 | 1016.9 |
| 20260901233028 | 15 | 58 | 0.0 | 0.0 | 0.00 | 0.18 | 0.18 | 91 | 1016.9 |
| 20260901232526 | 16 | 95 | 0.0 | 0.0 | 0.00 | 0.18 | 0.18 | 91 | 1016.7 |
| 20260901231732 | 16 | 95 | 0.0 | 0.0 | 0.00 | 0.18 | 0.18 | 90 | 1016.7 |
| 20260901231203 | 16 | 95 | 0.0 | 0.0 | 0.00 | 0.18 | 0.18 | 90 | 1016.7 |
| 20260901230929 | 16 | 95 | 0.0 | 0.0 | 0.00 | 0.18 | 0.18 | 90 | 1016.7 |
| 20260901230156 | 16 | 95 | 0.0 | 0.0 | 0.00 | 0.18 | 0.18 | 90 | 1016.6 |
| 20260901225653 | 16 | 95 | 0.0 | 0.0 | 0.00 | 0.18 | 0.18 | 89 | 1016.5 |
| 20260901225148 | 16 | 95 | 0.0 | 0.0 | 0.00 | 0.18 | 0.18 | 90 | 1016.4 |
| 20260901224855 | 17 | 95 | 0.0 | 0.0 | 0.00 | 0.18 | 0.18 | 90 | 1016.3 |
| 20260901224109 | 17 | 95 | 0.0 | 0.0 | 0.00 | 0.18 | 0.18 | 89 | 1016.3 |
| 20260901223610 | 17 | 95 | 0.0 | 0.0 | 0.00 | 0.18 | 0.18 | 89 | 1016.3 |
| 20260901223044 | 17 | 95 | 0.0 | 1.6 | 0.00 | 0.18 | 0.18 | 88 | 1016.1 |
| 20260901222520 | 17 | 95 | 1.6 | 3.2 | 0.00 | 0.18 | 0.18 | 88 | 1016.1 |
| 20260901221948 | 17 | 95 | 3.2 | 4.8 | 0.00 | 0.18 | 0.18 | 88 | 1016.0 |
| 20260901221424 | 17 | 105 | 1.6 | 4.8 | 0.00 | 0.18 | 0.18 | 88 | 1016.0 |
| 20260901220856 | 17 | 115 | 1.6 | 4.8 | 0.00 | 0.18 | 0.18 | 87 | 1016.0 |
| 20260901220349 | 17 | 111 | 0.0 | 4.8 | 0.00 | 0.18 | 0.18 | 87 | 1015.9 |
| 20260901215823 | 18 | 128 | 0.0 | 1.6 | 0.00 | 0.18 | 0.18 | 86 | 1015.9 |
| 20260901215257 | 18 | 128 | 0.0 | 1.6 | 0.00 | 0.18 | 0.18 | 85 | 1015.9 |
| 20260901214736 | 18 | 128 | 0.0 | 1.6 | 0.00 | 0.18 | 0.18 | 85 | 1015.8 |
| 20260901214210 | 18 | 128 | 0.0 | 4.8 | 0.00 | 0.18 | 0.18 | 84 | 1015.8 |
| 20260901213647 | 18 | 128 | 0.0 | 4.8 | 0.00 | 0.18 | 0.18 | 84 | 1015.8 |
| 20260901213147 | 18 | 85 | 1.6 | 4.8 | 0.00 | 0.18 | 0.18 | 83 | 1015.7 |
| 20260901212917 | 18 | 161 | 0.0 | 4.8 | 0.00 | 0.18 | 0.18 | 83 | 1015.5 |
| 20260901212146 | 18 | 168 | 0.0 | 1.6 | 0.00 | 0.18 | 0.18 | 81 | 1015.5 |
| 20260901211646 | 19 | 168 | 0.0 | 3.2 | 0.00 | 0.18 | 0.18 | 80 | 1015.5 |
| 20260901211146 | 19 | 168 | 0.0 | 3.2 | 0.00 | 0.18 | 0.18 | 80 | 1015.4 |
| 20260901210916 | 19 | 135 | 1.6 | 4.8 | 0.00 | 0.18 | 0.18 | 80 | 1015.2 |
| 20260901210142 | 19 | 145 | 0.0 | 4.8 | 0.00 | 0.18 | 0.18 | 79 | 1015.2 |
| 20260901205636 | 20 | 172 | 1.6 | 8.0 | 0.00 | 0.18 | 0.18 | 78 | 1015.2 |
| 20260901205127 | 20 | 219 | 1.6 | 14.5 | 0.00 | 0.18 | 0.18 | 77 | 1015.1 |
| 20260901204844 | 20 | 131 | 1.6 | 14.5 | 0.00 | 0.18 | 0.18 | 77 | 1015.2 |
| 20260901204112 | 20 | 137 | 1.6 | 4.8 | 0.00 | 0.18 | 0.18 | 77 | 1015.1 |
| 20260901203842 | 20 | 128 | 3.2 | 11.3 | 0.00 | 0.18 | 0.18 | 76 | 1015.0 |
| 20260901203045 | 20 | 231 | 3.2 | 11.3 | 0.00 | 0.18 | 0.18 | 76 | 1014.9 |
| 20260901202810 | 20 | 164 | 4.8 | 11.3 | 0.00 | 0.18 | 0.18 | 76 | 1014.9 |
| 20260901202032 | 20 | 116 | 3.2 | 12.9 | 0.00 | 0.18 | 0.18 | 77 | 1014.8 |
| 20260901201802 | 20 | 109 | 3.2 | 12.9 | 0.00 | 0.18 | 0.18 | 79 | 1014.8 |
| 20260901201019 | 20 | 267 | 3.2 | 9.7 | 0.00 | 0.18 | 0.18 | 79 | 1014.6 |
| 20260901200518 | 20 | 115 | 3.2 | 9.7 | 0.00 | 0.18 | 0.18 | 77 | 1014.6 |
| 20260901200016 | 20 | 126 | 3.2 | 16.1 | 0.00 | 0.18 | 0.18 | 77 | 1014.6 |
| 20260901195514 | 20 | 261 | 4.8 | 16.1 | 0.00 | 0.18 | 0.18 | 77 | 1014.5 |
| 20260901195008 | 21 | 142 | 3.2 | 11.3 | 0.00 | 0.18 | 0.18 | 77 | 1014.3 |
| 20260901194501 | 21 | 104 | 4.8 | 12.9 | 0.00 | 0.18 | 0.18 | 76 | 1014.2 |
| 20260901193935 | 21 | 110 | 6.4 | 14.5 | 0.00 | 0.18 | 0.18 | 75 | 1014.2 |
| 20260901193406 | 21 | 137 | 6.4 | 16.1 | 0.00 | 0.18 | 0.18 | 74 | 1014.0 |
| 20260901192900 | 21 | 100 | 4.8 | 16.1 | 0.00 | 0.18 | 0.18 | 74 | 1014.0 |
| 20260901192356 | 22 | 99 | 4.8 | 12.9 | 0.00 | 0.18 | 0.18 | 74 | 1013.9 |
| 20260901191853 | 22 | 163 | 3.2 | 9.7 | 0.00 | 0.18 | 0.18 | 73 | 1014.0 |
| 20260901191353 | 22 | 68 | 3.2 | 12.9 | 0.00 | 0.18 | 0.18 | 72 | 1013.9 |
| 20260901190854 | 22 | 249 | 3.2 | 12.9 | 0.00 | 0.18 | 0.18 | 71 | 1013.8 |
| 20260901190328 | 22 | 182 | 4.8 | 12.9 | 0.00 | 0.18 | 0.18 | 69 | 1013.9 |
| 20260901185810 | 22 | 117 | 4.8 | 12.9 | 0.00 | 0.18 | 0.18 | 71 | 1013.7 |
| 20260901185538 | 22 | 276 | 3.2 | 12.9 | 0.00 | 0.18 | 0.18 | 70 | 1013.7 |
| 20260901185418 | 22 | 205 | 4.8 | 12.9 | 0.00 | 0.18 | 0.18 | 70 | 1013.6 |
| 20260901184238 | 22 | 200 | 4.8 | 12.9 | 0.00 | 0.18 | 0.18 | 70 | 1013.5 |
| 20260901183730 | 22 | 258 | 4.8 | 14.5 | 0.00 | 0.18 | 0.18 | 70 | 1013.4 |
| 20260901183203 | 22 | 177 | 6.4 | 17.7 | 0.00 | 0.18 | 0.18 | 71 | 1013.5 |
| 20260901182653 | 22 | 251 | 8.0 | 17.7 | 0.00 | 0.18 | 0.18 | 71 | 1013.5 |
| 20260901182154 | 22 | 247 | 6.4 | 17.7 | 0.00 | 0.20 | 0.18 | 70 | 1013.4 |
| 20260901181649 | 22 | 111 | 4.8 | 17.7 | 0.00 | 0.20 | 0.18 | 69 | 1013.5 |
| 20260901181123 | 23 | 282 | 3.2 | 17.7 | 0.00 | 0.20 | 0.18 | 73 | 1013.4 |
| 20260901180556 | 22 | 270 | 4.8 | 14.5 | 0.00 | 0.20 | 0.18 | 73 | 1013.4 |
| 20260901180030 | 22 | 268 | 6.4 | 14.5 | 0.00 | 0.20 | 0.18 | 72 | 1013.3 |
| 20260901175528 | 22 | 187 | 6.4 | 12.9 | 0.00 | 0.20 | 0.18 | 75 | 1013.4 |
| 20260901175024 | 22 | 217 | 6.4 | 14.5 | 0.00 | 0.20 | 0.18 | 73 | 1013.4 |
| 20260901174754 | 22 | 243 | 6.4 | 14.5 | 0.00 | 0.20 | 0.18 | 72 | 1013.6 |
| 20260901173501 | 22 | 141 | 3.2 | 12.9 | 0.00 | 0.23 | 0.18 | 75 | 1013.5 |
| 20260901173002 | 21 | 195 | 3.2 | 8.0 | 0.00 | 0.23 | 0.18 | 77 | 1013.4 |
| 20260901172441 | 21 | 193 | 3.2 | 12.9 | 0.00 | 0.23 | 0.18 | 80 | 1013.4 |
| 20260901172434 | 21 | 247 | 3.2 | 11.3 | 0.00 | 0.23 | 0.18 | 76 | 1013.4 |
| 20260901171403 | 21 | 250 | 3.2 | 12.9 | 0.00 | 0.23 | 0.18 | 79 | 1013.4 |
| 20260901170846 | 21 | 274 | 3.2 | 11.3 | 0.00 | 0.23 | 0.18 | 80 | 1013.4 |
| 20260901170321 | 21 | 289 | 3.2 | 11.3 | 0.00 | 0.23 | 0.18 | 81 | 1013.6 |
| 20260901165821 | 21 | 220 | 3.2 | 11.3 | 0.00 | 0.23 | 0.18 | 85 | 1013.6 |
| 20260901165322 | 21 | 182 | 3.2 | 11.3 | 0.00 | 0.23 | 0.18 | 83 | 1013.6 |
| 20260901165051 | 21 | 249 | 3.2 | 9.7 | 0.00 | 0.23 | 0.18 | 84 | 1013.7 |
| 20260901164549 | 20 | 260 | 4.8 | 9.7 | 0.00 | 0.23 | 0.18 | 86 | 1013.7 |